Location: Baggettsville
(36.4767°N, 86.7303°W)
Time: 21:58:53
(UTC+00:00)

ISS - Pass Details

Date: 04 October 2021
Orbit: 417 x 422 km, 51.6° (Epoch: 28 October)

Event Time Altitude Azimuth Distance (km) Brightness Sun altitude
Rises 00:31:00 0° 319° (NW) 2,364 0.8 -13.7°
Reaches altitude 10° 00:33:19 10° 332° (NNW) 1,499 -0.5 -14.2°
Maximum altitude 00:36:14 27° 33° (NNE) 849 -2.5 -14.7°
Enters shadow 00:36:56 25° 55° (NE) 901 -2.5 -14.9°
